Le nostre stazioni meteo in Italia

Pubblicità
Il mio iltempo24.it
Monte Scuro, Italia (16344): Temperatura & dewpoint: 07.12.2018 22:00:00 - 13.12.2018 22:00:00 (CET)Monte Scuro, Italia (16344): velocità del vento: 07.12.2018 22:00:00 - 13.12.2018 22:00:00 (CET)Monte Scuro, Italia (16344): direzione del vento: 07.12.2018 22:00:00 - 13.12.2018 22:00:00 (CET)Monte Scuro, Italia (16344): visibility: 07.12.2018 22:00:00 - 13.12.2018 22:00:00 (CET)Monte Scuro, Italia (16344): ore di luce: 07.12.2018 22:00:00 - 13.12.2018 22:00:00 (CET)
Data & Tempo tt [°C] td [°C] ff [km/h] ff [kn] dd vv [km] sd [min]
13.12.2018 22:00:00 2,2 2,2 22 12 O - -
13.12.2018 21:00:00 2,2 2,2 24 13 O - -
13.12.2018 20:00:00 2,2 2,2 26 14 O - -
13.12.2018 19:00:00 2,0 2,0 24 13 O - -
13.12.2018 18:00:00 2,0 2,0 26 14 O - -
13.12.2018 17:00:00 1,8 1,8 28 15 O - 0
13.12.2018 16:00:00 1,4 1,4 22 12 O - 0
13.12.2018 15:00:00 1,6 1,6 26 14 O - 0
13.12.2018 14:00:00 1,6 1,6 21 11 O - 0
13.12.2018 13:00:00 1,0 1,0 22 12 O - 0
13.12.2018 12:00:00 1,0 1,0 18 10 O - 0
13.12.2018 11:00:00 1,6 1,6 8 4 O - 0
13.12.2018 10:00:00 1,0 0,3 9 5 O - 0
13.12.2018 09:00:00 0,8 0,1 8 4 O - 0
13.12.2018 08:00:00 0,8 0,1 9 5 O - 0
13.12.2018 07:00:00 0,8 0,1 5 3 OSO - -
13.12.2018 06:00:00 0,6 -0,1 5 3 ONO - -
13.12.2018 05:00:00 0,6 -0,1 5 3 ONO - -
13.12.2018 04:00:00 0,8 0,1 9 5 O - -
13.12.2018 03:00:00 0,8 0,1 8 4 O - -
13.12.2018 02:00:00 1,0 0,3 5 3 NNE - -
13.12.2018 01:00:00 1,0 0,3 9 5 NNE - -
13.12.2018 00:00:00 1,0 0,3 5 3 NNE - -
12.12.2018 23:00:00 1,4 -0,8 5 3 SO 10 -
12.12.2018 22:00:00 1,4 -4,3 5 3 SSO 10 -
12.12.2018 21:00:00 1,4 -4,5 9 5 O 10 -
12.12.2018 20:00:00 1,2 -4,9 5 3 O 10 -
12.12.2018 19:00:00 0,0 -2,7 9 5 O 10 -
12.12.2018 18:00:00 0,0 -5,2 9 5 O 10 -
12.12.2018 17:00:00 -0,2 -2,7 8 4 O 15 0
12.12.2018 16:00:00 0,0 -3,7 9 5 O 20 12
12.12.2018 15:00:00 0,0 -1,1 8 4 O 20 0
12.12.2018 14:00:00 0,0 -1,4 5 3 O 15 0
12.12.2018 13:00:00 1,0 -3,1 8 4 O 20 18
12.12.2018 12:00:00 1,0 -3,1 8 4 O 20 30
12.12.2018 11:00:00 0,0 -4,1 5 3 O 20 0
12.12.2018 10:00:00 0,0 -4,8 16 9 O 20 0
12.12.2018 09:00:00 -1,0 -2,0 16 9 O 10 0
12.12.2018 08:00:00 -1,4 -4,7 9 5 O 25 60
12.12.2018 07:00:00 -1,6 -2,7 11 6 O 20 -
12.12.2018 06:00:00 -1,6 -4,9 15 8 OSO 10 -
12.12.2018 05:00:00 -1,6 -5,1 16 9 OSO 10 -
12.12.2018 04:00:00 -1,6 -5,1 15 8 SO 10 -
12.12.2018 03:00:00 -1,6 -5,1 16 9 O 10 -
12.12.2018 02:00:00 -1,6 -4,6 22 12 OSO 10 -
12.12.2018 01:00:00 -1,6 -4,6 26 14 OSO 10 -
12.12.2018 00:00:00 -1,6 -4,8 18 10 O 10 -
11.12.2018 23:00:00 -1,6 -5,1 21 11 OSO 10 -
11.12.2018 22:00:00 -1,6 -5,8 18 10 O 10 -
11.12.2018 21:00:00 -1,4 -4,9 18 10 OSO 10 -
11.12.2018 20:00:00 -1,4 -4,1 16 9 OSO 10 -
11.12.2018 19:00:00 -1,4 -3,3 21 11 O 10 -
11.12.2018 18:00:00 -1,0 -2,7 21 11 SO 10 -
11.12.2018 17:00:00 -1,4 -3,3 22 12 SO 10 30
11.12.2018 16:00:00 -0,4 -4,3 16 9 OSO 15 60
11.12.2018 15:00:00 -0,2 -3,4 15 8 OSO 10 42
11.12.2018 14:00:00 -0,2 -2,9 11 6 OSO 10 18
11.12.2018 13:00:00 -0,8 -3,3 11 6 NNE 10 30
11.12.2018 12:00:00 -1,2 -3,1 8 4 NNE 10 12
11.12.2018 11:00:00 -2,0 -2,8 8 4 NNE 0,3 12
11.12.2018 10:00:00 -1,6 -2,4 4 2 NNE 0,1 0
11.12.2018 09:00:00 -2,0 -2,3 4 2 NNE - 0
11.12.2018 08:00:00 -2,2 -2,5 8 4 NNE - 0
11.12.2018 07:00:00 -1,8 -1,9 11 6 NNE - -
11.12.2018 06:00:00 -1,2 -1,3 15 8 NNE - -
11.12.2018 05:00:00 -0,4 -0,7 4 2 N - -
11.12.2018 04:00:00 -0,4 -0,7 4 2 N - -
11.12.2018 03:00:00 -0,4 -0,7 11 6 N - -
11.12.2018 02:00:00 -0,4 -0,7 11 6 N - -
11.12.2018 01:00:00 -0,8 -3,8 8 4 NNO 10 -
11.12.2018 00:00:00 -0,8 -5,4 11 6 NNO 10 -
10.12.2018 23:00:00 -1,0 -2,4 0 0 N 10 -
10.12.2018 22:00:00 0,2 0,1 11 6 ENE - -
10.12.2018 21:00:00 0,2 0,1 8 4 ENE - -
10.12.2018 20:00:00 0,2 -0,1 13 7 ENE - -
10.12.2018 19:00:00 1,4 1,1 9 5 O 10 -
10.12.2018 18:00:00 1,4 1,0 9 5 O 10 0
10.12.2018 17:00:00 1,4 1,1 8 4 O - 0
10.12.2018 16:00:00 2,0 1,7 4 2 O - 0
10.12.2018 15:00:00 2,4 2,0 4 2 ONO 0,1 0
10.12.2018 14:00:00 3,2 2,5 15 8 O 15 0
10.12.2018 13:00:00 3,0 2,6 16 9 O 0,1 12
10.12.2018 12:00:00 3,4 3,0 15 8 O 20 60
10.12.2018 11:00:00 3,4 -0,6 15 8 O 25 60
10.12.2018 10:00:00 1,8 -3,1 9 5 O 25 60
10.12.2018 09:00:00 1,0 -2,1 5 3 O 25 60
10.12.2018 08:00:00 0,8 -3,1 5 3 O 20 18
10.12.2018 07:00:00 0,8 -0,8 8 4 O 15 -
10.12.2018 06:00:00 0,8 0,8 9 5 O - -
10.12.2018 05:00:00 0,8 0,8 9 5 ONO - -
10.12.2018 04:00:00 0,8 0,8 9 5 ONO - -
10.12.2018 03:00:00 1,8 1,8 9 5 NO - -
10.12.2018 02:00:00 2,8 2,8 22 12 O - -
10.12.2018 01:00:00 3,2 3,2 22 12 O - -
10.12.2018 00:00:00 3,4 3,4 34 18 O - -
09.12.2018 23:00:00 3,6 3,6 29 16 O - -
09.12.2018 22:00:00 4,0 4,0 29 16 O - -
09.12.2018 21:00:00 4,0 4,0 22 12 O - -
09.12.2018 20:00:00 4,0 4,0 28 15 O - -
09.12.2018 19:00:00 3,8 3,8 42 23 O - -
09.12.2018 18:00:00 3,8 3,8 22 12 O - -
09.12.2018 17:00:00 3,8 3,8 22 12 O - 0
09.12.2018 16:00:00 3,4 3,4 31 17 O - 0
09.12.2018 15:00:00 2,8 2,8 34 18 O - 0
09.12.2018 14:00:00 2,4 2,4 34 18 O - 0
09.12.2018 13:00:00 2,0 1,3 28 15 O - 0
09.12.2018 12:00:00 2,0 -0,6 18 10 O - 12
09.12.2018 11:00:00 1,8 -1,3 26 14 O 20 60
09.12.2018 10:00:00 1,2 1,2 34 18 OSO - 0
09.12.2018 09:00:00 0,8 0,8 34 18 O - 0
09.12.2018 08:00:00 0,8 -2,6 31 17 O 30 60
09.12.2018 07:00:00 1,0 -0,8 29 16 O 10 -
09.12.2018 06:00:00 1,0 1,0 34 18 O 10 -
09.12.2018 05:00:00 1,0 -0,5 31 17 O 10 -
09.12.2018 04:00:00 1,2 1,2 28 15 O - -
09.12.2018 03:00:00 1,4 1,4 29 16 O - -
09.12.2018 02:00:00 2,0 2,0 26 14 O - -
09.12.2018 01:00:00 2,0 2,0 28 15 O - -
09.12.2018 00:00:00 2,0 2,0 29 16 O - -
08.12.2018 23:00:00 2,2 2,2 31 17 O - -
08.12.2018 22:00:00 2,0 2,0 29 16 O - -
08.12.2018 21:00:00 2,0 2,0 29 16 O - -
08.12.2018 20:00:00 2,4 2,4 31 17 O - -
08.12.2018 19:00:00 2,4 2,4 34 18 O - -
08.12.2018 18:00:00 2,2 2,2 34 18 O - -
08.12.2018 17:00:00 2,4 2,4 34 18 O - -
08.12.2018 16:00:00 3,8 3,8 37 20 O - 0
08.12.2018 15:00:00 3,8 3,8 28 15 OSO - -
08.12.2018 14:00:00 4,0 4,0 28 15 O - 0
08.12.2018 13:00:00 3,8 3,8 35 19 O - 0
08.12.2018 12:00:00 3,0 3,0 35 19 O - 0
08.12.2018 11:00:00 3,0 3,0 34 18 ONO - 0
08.12.2018 10:00:00 2,8 2,2 31 17 O - 0
08.12.2018 09:00:00 1,8 1,1 24 13 O - 0
08.12.2018 08:00:00 1,6 0,0 29 16 ONO 10 0
08.12.2018 07:00:00 1,6 1,2 29 16 ONO - 0
08.12.2018 06:00:00 2,0 1,6 28 15 ONO - -
08.12.2018 05:00:00 2,0 1,7 28 15 ONO - -
08.12.2018 04:00:00 2,0 2,0 24 13 O - -
08.12.2018 03:00:00 2,0 0,8 24 13 ONO 2,0 -
08.12.2018 02:00:00 3,4 -3,0 29 16 ONO 10 -
08.12.2018 01:00:00 3,4 -3,6 29 16 ONO 10 -
08.12.2018 00:00:00 3,8 -3,2 29 16 O 10 -
07.12.2018 23:00:00 3,8 -3,7 24 13 O 10 -
07.12.2018 22:00:00 4,0 -5,0 29 16 O 15 -

tt = Temperatura
td = dewpoint
ff = velocità del vento
dd = direzione del vento
vv = visibility
sd = ore di luce

Stazioni seguenti

WeatherPro
AMSI
MeteoEarth